Regional Weather Roundup
Issued by NWS

Home | Current Version | Previous Version | Graphics & Text | Print | Product List | Glossary Off
Versions: 1 2 3 4 5 6 7 8 9 10 11 12 13 14 15 16 17 18 19 20 21 22 23 24 25 26 27 28 29 30 31 32 33 34 35 36 37 38 39 40 41 42 43 44 45 46 47 48 49 50

000
ASUS43 KMKX 300920
RWRWI

WISCONSIN REGIONAL WEATHER ROUNDUP
NATIONAL WEATHER SERVICE MILWAUKEE/SULLIVAN WI
400 AM CDT MON MAR 30 2015

NOTE: "FAIR" INDICATES FEW OR NO CLOUDS BELOW 12,000 FEET WITH NO
SIGNIFICANT WEATHER AND/OR OBSTRUCTIONS TO VISIBILITY.

WIZ001-002-006>008-014>016-023>028-301000-
NORTHWEST WISCONSIN

CITY           SKY/WX    TMP DP  RH WIND       PRES   REMARKS
SUPERIOR ARPT  CLEAR     33  26  75 SW10      29.87R WCI  25
ASHLAND        CLEAR     35  26  69 W8        29.83S WCI  29
HAYWARD        CLEAR     33  25  72 SW5       29.87S WCI  29
SIREN          CLEAR     35  25  67 W8        29.91S WCI  28
CUMBERLAND     CLEAR     34  27  75 W9        29.91R WCI  26
RICE LAKE      CLEAR     34  26  70 W6        29.92R WCI  29
CHETEK         CLEAR     38  26  60 SW6       29.91R WCI  34
LADYSMITH      CLEAR     32  26  77 W5        29.89S WCI  28
EAU CLAIRE     MOCLDY    32  24  72 SW7       29.92S WCI  26
MENOMONIE      CLOUDY    40  25  54 W9        29.93S WCI  34
NEW RICHMOND   CLOUDY    35  27  73 CALM      29.94S
OSCEOLA        CLOUDY    37  28  70 W3        29.96S
$$

WIZ003>005-009-010-017-018-301000-
NORTH CENTRAL WISCONSIN

CITY           SKY/WX    TMP DP  RH WIND       PRES   REMARKS
MANITOWISH WTR FAIR      32  26  80 W9        29.79S WCI  24
ARBOR VITAE    CLEAR     36  28  75 W7        29.80S WCI  30
WOODRUFF       CLEAR     36  28  75 W7        29.80S WCI  30
RHINELANDER    CLEAR     31  25  78 W12       29.81S WCI  22
EAGLE RIVER    CLEAR     32  24  73 W12       29.78S WCI  23
LAND O LAKES   PTCLDY    33  27  77 W8        29.77S WCI  26
PHILLIPS       CLEAR     32  26  78 W3        29.83S
TOMAHAWK       FAIR      33  26  72 W7        29.84S WCI  27
MEDFORD        CLEAR     32  26  78 W7        29.86S WCI  26
MERRILL        CLEAR     32  27  83 W10       29.84S WCI  23
$$

WIZ029-030-035-036-043>047-301000-
CENTRAL WISCONSIN

CITY           SKY/WX    TMP DP  RH WIND       PRES   REMARKS
WAUSAU         CLEAR     34  27  75 W13       29.85R WCI  25
MOSINEE        CLEAR     30  28  93 SW6       29.88R WCI  24
MARSHFIELD     CLEAR     34  26  72 W8        29.89S WCI  27
STEVENS POINT  CLEAR     33  26  74 W8        29.89R WCI  26
WAUPACA        CLEAR     35  27  74 W7        29.89R WCI  29
WAUTOMA        CLEAR     31  27  85 CALM      29.91F
WISC RAPIDS    CLEAR     32  24  72 W7        29.92S WCI  26
CAMP DOUGLAS   CLEAR     33  29  86 W8        29.92S WCI  26
$$

WIZ011>013-019>022-031-037>040-048>050-301000-
NORTHEAST WISCONSIN

CITY           SKY/WX    TMP DP  RH WIND       PRES   REMARKS
ANTIGO         CLEAR     32  27  80 W9        29.82S WCI  24
SHAWANO        CLEAR     36  28  74 SW7       29.85S WCI  30
OCONTO         CLEAR     35  28  77 W12       29.82R WCI  27
STURGEON BAY   CLEAR     36  27  69 W10       29.82S WCI  28
GREEN BAY      CLEAR     36  29  75 W12       29.86R WCI  28
MANITOWOC      CLEAR     38  30  73 W15       29.86R WCI  29
APPLETON       CLEAR     32  28  86 W8        29.88R WCI  25
CLINTONVILLE   CLEAR     34  28  80 W7        29.86S WCI  28
OSHKOSH        CLEAR     36  27  69 W5        29.89S WCI  32
$$

WIZ032>034-041-042-053>061-301000-
SOUTHWEST WISCONSIN

CITY           SKY/WX    TMP DP  RH WIND       PRES   REMARKS
LA CROSSE      PTCLDY    31  26  82 CALM      29.97S
SPARTA         CLEAR     35  27  73 W5        29.96R WCI  31
VIROQUA        CLEAR     34  28  79 W9        29.95F WCI  27
BOSCOBEL       CLEAR     30  26  85 SW3       29.99S
PRAIRIE DU CHI CLEAR     38  28  68 CALM      30.00S
PLATTEVILLE    CLEAR     34  29  80 SW8       29.99S WCI  28
$$

WIZ056-057-062-063-064-067-068-301000-
SOUTH CENTRAL WISCONSIN

CITY           SKY/WX    TMP DP  RH WIND       PRES   REMARKS
REEDSBURG      FAIR      28  26  95 CALM      29.94S
BARABOO/DELLS  FAIR      34  26  71 W3        29.94S
LONE ROCK      CLEAR     39  28  64 W8        29.98R WCI  33
MINERAL POINT  CLEAR     34  28  80 W6        29.97S WCI  29
MADISON        CLEAR     36  28  73 VRB6      29.95R WCI  31
MIDDLETON      CLEAR     35  28  74 CALM      29.96R
WATERTOWN      CLEAR     31  29  94 W3        29.93R
MONROE         CLEAR     36  30  80 W14       29.97S WCI  27
JANESVILLE     CLEAR     36  28  75 W7        29.96S WCI  30
$$

WIZ051-052-058>065-066-070>072-301000-
SOUTHEAST WISCONSIN

CITY           SKY/WX    TMP DP  RH WIND       PRES   REMARKS
MILWAUKEE      PTCLDY    37  30  75 W3        29.93S
WAUKESHA       CLEAR     34  28  80 W5        29.93S WCI  30
MILWAUKEE/TIMM PTCLDY    36  30  80 W9        29.92S WCI  29
RACINE         CLEAR     36  30  79 W7        29.95S WCI  30
BURLINGTON     CLEAR     27  25  91 SW6       29.94S WCI  20
KENOSHA        CLEAR     33  29  85 W8        29.94S WCI  26
FOND DU LAC    CLEAR     37  27  67 W10       29.90S WCI  30
SHEBOYGAN      CLEAR     38  28  67 W8        29.88S WCI  32
WEST BEND      CLEAR     37  28  70 W12       29.90R WCI  30
JUNEAU         CLEAR     32  28  84 W6        29.93S WCI  26
$$

LSZ147-162-301000-
LAKE SUPERIOR

STATION/POSITION TIME  TEMP    WIND        PRES    WAVE
                       AIR SEA DIR/SP/G            HT/PER
                 (UTC) (F)     (DEG/KT/KT) (MB)    (FT/S)
DEVILS ISLAND    0900   36     250/ 14/ 16 1010.1R
PORT WING        0800   39     250/ 13/ 19 1010.5
SAXON HARBOR     0840   38     220/  8/ 12 1009.5S
$$

LMZ867-665-643>646-301000-
LAKE MICHIGAN

STATION/POSITION TIME  TEMP    WIND        PRES    WAVE
                       AIR SEA DIR/SP/G            HT/PER
                 (UTC) (F)     (DEG/KT/KT) (MB)    (FT/S)
NORTHPORT PIER   0800   36     270/  6/ 12 1007.8S
SISTER BAY       0847   35     260/ 13/ 15   N/A
KEWAUNEE LAKESHO 0800   38     280/  8/ 11 1009.2R
SHEBOYGAN LAKESH 0900   40     270/ 13/ 15 1012.5S
PORT WASHINGTON  0800   40     270/  5/  7 1013.2R
MILWAUKEE LAKESH 0900   40     270/  8/ 11   N/A
KENOSHA   LAKESH 0900   39     260/  9/ 12 1014.2R
$$

TC  - TEMPERATURE IN CELSIUS
VSB - VISIBILITY IN STATUTE MILES
WCI - WIND CHILL INDEX
HX  - HEAT INDEX




USA.gov is the U.S. government's official web portal to all federal, state and local government web resources and services.